Wind_Speed
63 79 85 78 67 50 56 55 57 64 57 64 71 68 55 52 49 45 42 39 35 32 32 30 28 27 25 24 22 21 20 21 19 19 20 19 19 19 21 21 22 21 23 25
63 76 78 71 68 56 58 56 59 54 56 67 68 66 64 55 51 48 44 40 36 38 36 32 29 27 25 24 24 22 23 21 20 20 21 20 21 20 22 23 23 22 23 22
62 65 72 73 72 71 54 56 54 55 56 62 59 61 59 66 59 52 49 41 40 40 39 36 31 28 27 25 24 24 24 23 23 21 22 22 23 22 25 25 25 23 24 23
33 58 71 67 63 64 56 55 53 55 47 56 64 58 54 60 66 57 52 48 44 43 43 39 36 33 28 27 29 27 27 26 24 22 23 25 25 24 25 27 26 26 26 25
45 56 63 62 53 53 56 50 44 49 52 54 56 70 46 52 71 63 58 55 47 44 43 39 35 30 30 33 31 30 30 28 26 24 25 27 26 25 28 28 28 29 29 29
34 54 56 52 52 46 52 43 38 37 41 50 57 59 47 50 49 59 57 59 50 45 44 39 35 36 36 35 33 34 32 29 28 28 28 29 29 27 30 29 31 33 33 34
32 47 53 48 46 50 57 46 37 38 42 48 51 62 49 41 51 44 42 53 55 48 44 40 40 37 36 33 32 33 33 31 30 31 30 31 32 30 32 32 34 34 36 37
25 44 40 48 63 55 58 55 57 46 46 46 48 56 53 48 47 44 44 51 52 53 47 42 37 36 36 34 35 35 38 35 34 34 33 33 33 34 35 38 37 36 37 40
27 24 45 35 47 52 49 53 47 46 49 44 51 56 54 45 49 51 46 49 54 49 44 44 40 41 39 39 38 38 39 39 37 37 36 34 34 36 38 40 37 38 40 40
26 22 32 23 33 36 38 44 46 49 47 39 45 55 57 46 48 49 44 41 46 48 48 43 43 43 45 44 37 36 37 39 39 41 39 36 37 40 41 40 38 40 40 42
29 23 16 37 31 31 38 42 41 42 48 41 42 49 52 47 41 48 46 49 48 47 48 42 43 45 44 41 38 36 39 42 43 43 42 42 42 43 43 41 41 42 42 42
23 31 17 27 37 29 28 38 34 39 39 38 40 47 48 55 51 39 39 45 47 54 47 48 45 43 37 40 46 44 41 45 47 47 47 49 46 45 44 47 43 43 44 44
25 25 12 14 17 20 28 22 29 25 27 37 29 25 44 51 54 53 45 43 45 44 43 49 46 37 38 43 48 48 42 44 46 51 49 50 49 46 47 46 44 46 45 46
27 24 18 16 15 15 22 23 25 23 24 26 29 33 32 28 43 53 55 50 47 46 47 52 48 42 43 46 50 48 44 47 49 52 52 52 50 46 47 45 47 47 47 47
30 28 21 24 20 11 16 21 30 21 21 23 22 21 28 34 36 36 38 43 41 40 37 36 40 45 49 47 52 52 50 53 51 52 56 51 51 49 49 49 48 49 49 51
20 29 28 31 32 32 15 19 24 24 28 30 25 22 25 33 37 35 35 37 38 38 44 44 42 45 49 52 54 57 59 58 54 54 58 59 52 49 48 50 52 51 55 57
17 19 21 25 26 27 26 17 17 24 27 33 32 27 26 29 33 36 38 40 42 43 41 40 41 45 47 47 50 52 53 55 54 56 59 55 52 52 52 54 57 58 61 59
9 12 14 20 23 24 24 23 22 18 17 23 28 29 28 31 31 34 36 40 41 42 43 45 44 45 47 47 47 45 48 51 52 57 57 51 52 54 54 55 58 60 62 53
9 14 11 12 15 19 20 23 24 25 23 20 21 25 27 31 32 34 32 38 40 41 43 45 46 47 48 48 48 45 45 46 45 43 46 44 45 51 54 56 54 50 46 44
12 9 10 9 12 14 17 22 24 23 24 25 25 23 24 25 29 30 32 34 37 40 42 45 46 46 46 48 47 46 46 44 41 40 43 46 49 50 48 44 43 43 44 45
15 13 9 7 8 10 11 15 18 19 19 23 27 28 29 31 32 31 32 34 35 36 38 41 43 45 45 46 46 46 46 44 40 46 43 42 42 45 45 44 44 44 45 47
18 17 15 13 11 13 11 12 12 12 12 15 20 26 29 33 35 37 37 37 35 34 35 38 41 44 45 46 45 45 46 48 45 49 45 44 46 46 45 45 46 47 46 42
20 20 19 17 17 16 14 15 15 17 17 16 16 17 19 24 28 35 39 40 42 41 40 39 38 40 40 42 45 46 45 49 49 48 48 48 47 47 44 45 47 46 43 44
22 22 22 21 22 23 22 20 20 21 22 22 24 25 25 24 24 24 26 29 34 38 41 42 42 43 44 45 45 45 43 43 43 43 43 45 47 47 48 47 45 46 45 43
25 24 24 23 24 24 23 24 25 27 28 29 30 32 34 34 34 34 33 31 31 32 35 37 38 39 41 44 46 47 46 45 46 46 47 47 48 49 49 48 47 45 43 37
13 16 19 19 21 21 22 24 27 31 33 34 35 38 41 43 44 44 44 45 45 41 38 37 40 41 41 42 43 45 46 46 47 47 46 48 48 47 46 47 44 41 38 36
Wind_Direction
201 202 206 210 210 212 216 224 225 217 225 220 215 212 209 220 220 216 214 213 211 209 214 213 208 206 206 209 210 211 219 225 231 235 243 251 259 271 281 292 298 300 305 311
195 200 202 203 206 210 221 217 220 221 218 220 220 221 210 218 220 217 217 213 213 213 215 216 217 214 213 212 215 219 225 231 236 241 250 257 267 275 282 291 296 298 306 310
188 193 192 195 201 206 215 213 222 215 218 218 220 223 215 213 216 217 218 211 216 218 219 217 219 220 219 220 226 229 233 237 240 247 258 263 270 277 284 293 295 300 307 311
187 195 189 189 202 209 216 211 217 220 222 224 224 225 223 217 216 217 216 211 215 221 221 216 216 219 223 224 230 235 239 243 248 251 259 264 272 278 285 292 294 297 304 308
190 184 187 195 202 213 216 217 218 222 228 225 225 229 221 228 220 215 218 214 217 223 227 223 224 227 228 232 234 237 242 245 250 253 259 267 272 279 284 291 294 294 301 306
178 176 182 190 205 204 206 207 206 216 225 230 226 223 226 221 220 220 224 228 221 225 229 227 228 228 229 233 239 245 247 248 250 255 259 265 273 279 282 288 290 290 295 302
178 189 194 203 199 206 211 205 211 212 230 234 228 223 223 224 228 223 222 226 226 223 228 229 231 231 237 241 245 247 250 252 253 257 258 267 273 280 281 286 289 290 293 297
171 190 193 208 216 217 210 211 223 225 227 230 219 223 225 233 223 224 216 220 228 229 226 225 230 232 234 235 242 250 253 254 255 257 261 265 273 279 278 284 286 288 291 293
189 176 205 204 204 204 211 212 214 220 221 222 223 227 231 224 226 224 222 219 227 233 236 230 232 232 234 243 250 261 253 252 254 258 260 267 273 275 277 280 282 284 288 290
199 209 196 208 200 207 207 205 213 219 228 226 225 226 228 227 226 225 230 224 229 234 244 242 234 230 237 242 252 258 251 251 257 261 264 267 268 271 274 279 281 283 285 289
203 211 197 190 200 219 222 214 224 228 234 237 234 229 228 225 224 227 233 230 230 222 230 238 231 231 235 241 250 251 252 253 258 264 268 263 264 270 272 276 277 278 283 287
197 222 217 207 207 212 214 216 227 226 226 228 235 237 235 228 229 223 226 231 227 220 231 227 236 240 235 238 244 253 255 259 260 260 264 263 263 269 272 274 275 277 281 286
225 212 201 176 240 209 206 214 212 214 207 214 215 228 234 235 232 229 227 234 236 237 224 226 229 240 249 252 250 240 256 262 261 258 260 264 265 266 270 268 272 277 280 281
220 219 228 209 204 228 217 210 207 228 216 220 223 224 229 232 234 235 237 241 246 249 241 236 238 239 242 247 241 243 253 263 264 262 260 259 262 265 265 267 271 273 276 279
222 217 230 239 233 265 242 230 236 236 217 217 231 230 230 233 237 230 228 233 234 237 238 236 238 238 238 240 243 250 255 263 263 265 256 256 260 262 263 266 268 272 274 276
243 231 238 241 251 256 251 241 236 241 229 236 247 251 243 230 227 232 236 235 234 234 238 242 242 240 239 244 250 253 256 256 256 259 263 259 257 259 261 265 267 267 269 273
221 233 235 238 242 237 240 242 239 244 238 238 249 250 254 242 239 237 235 239 236 234 236 235 236 239 242 244 246 250 252 254 257 258 255 256 255 255 258 260 263 268 272 276
239 237 241 231 229 227 235 249 247 232 227 231 239 243 244 250 249 244 241 236 236 236 236 236 235 237 239 240 242 245 249 255 259 261 258 258 260 262 263 265 267 269 275 273
261 260 266 250 238 235 235 235 241 245 253 250 234 235 241 245 251 249 244 243 245 242 239 238 238 239 242 244 244 244 244 247 250 255 260 265 267 268 268 270 274 272 266 270
248 248 254 267 250 243 240 249 251 254 258 260 262 255 246 244 244 246 246 242 242 246 245 243 241 240 243 245 244 247 249 251 253 262 261 262 263 264 263 263 265 265 268 274
238 239 243 252 260 241 236 245 245 248 253 257 260 259 256 252 252 250 246 247 249 247 245 245 246 244 241 243 243 245 251 251 251 257 258 260 260 261 263 266 268 269 269 272
233 234 229 240 240 252 263 270 258 261 261 262 261 257 255 255 255 254 256 257 253 249 249 247 248 248 247 246 245 247 253 255 251 255 259 262 264 264 267 266 264 263 270 275
232 231 239 242 242 245 248 255 265 274 275 268 269 268 267 264 261 258 255 254 257 257 254 252 251 251 249 249 248 247 247 247 249 252 256 259 261 263 261 260 263 268 271 273
248 244 245 251 255 258 261 264 269 273 267 264 265 268 269 268 266 264 260 259 259 259 259 258 258 257 257 254 252 251 253 255 253 252 254 256 258 258 259 261 264 266 268 271
250 255 258 262 260 260 264 265 265 267 271 272 271 271 272 272 273 270 266 263 261 261 260 256 253 252 252 252 252 251 251 252 254 254 255 255 256 257 258 259 261 262 264 263
265 256 255 245 255 256 254 258 267 274 278 279 277 274 272 273 271 268 266 267 268 265 259 259 258 253 250 248 248 249 249 249 250 252 252 251 252 253 255 258 258 258 257 257
Height
5586 5598 5611 5642 5664 5682 5687 5696 5705 5721 5731 5737 5741 5753 5765 5766 5773 5781 5785 5789 5795 5802 5805 5809 5813 5816 5820 5825 5827 5830 5833 5835 5837 5839 5839 5840 5841 5840 5840 5840 5840 5838 5838 5836
5574 5586 5622 5642 5658 5667 5674 5684 5698 5711 5720 5724 5732 5739 5755 5760 5767 5773 5780 5784 5790 5794 5799 5805 5810 5813 5817 5820 5823 5825 5828 5830 5832 5834 5835 5836 5836 5836 5835 5835 5835 5834 5833 5831
5571 5592 5613 5630 5644 5656 5665 5680 5692 5705 5711 5716 5725 5732 5744 5748 5756 5762 5771 5778 5783 5788 5794 5799 5805 5810 5812 5816 5819 5820 5823 5825 5827 5829 5831 5831 5832 5831 5830 5830 5830 5828 5828 5827
5576 5591 5606 5624 5641 5655 5663 5676 5686 5694 5703 5710 5720 5720 5732 5741 5748 5754 5761 5768 5774 5780 5786 5792 5796 5802 5808 5811 5812 5815 5818 5821 5822 5824 5826 5825 5827 5827 5824 5825 5824 5823 5822 5821
5583 5592 5611 5626 5646 5654 5661 5673 5683 5690 5697 5702 5709 5714 5728 5732 5736 5746 5754 5762 5768 5775 5782 5789 5793 5799 5802 5803 5807 5809 5812 5815 5816 5818 5821 5820 5821 5822 5819 5819 5818 5816 5815 5815
5589 5601 5615 5631 5642 5649 5657 5668 5677 5683 5689 5690 5702 5707 5714 5721 5731 5742 5750 5755 5764 5771 5775 5783 5788 5790 5793 5797 5801 5804 5807 5809 5810 5812 5814 5814 5814 5815 5812 5813 5812 5810 5808 5806
5597 5606 5618 5628 5636 5643 5648 5660 5669 5673 5676 5683 5696 5700 5707 5718 5726 5736 5746 5749 5756 5764 5768 5775 5778 5784 5788 5793 5796 5798 5801 5802 5804 5805 5807 5807 5807 5808 5806 5806 5805 5803 5800 5798
5600 5608 5617 5623 5631 5639 5646 5654 5658 5666 5672 5680 5688 5690 5701 5712 5719 5725 5733 5741 5747 5750 5759 5766 5773 5777 5782 5785 5787 5790 5793 5795 5797 5798 5799 5801 5800 5799 5798 5797 5797 5796 5793 5790
5600 5607 5615 5619 5626 5635 5640 5647 5657 5665 5671 5676 5682 5686 5692 5705 5711 5716 5723 5730 5735 5743 5751 5761 5767 5770 5773 5776 5781 5783 5784 5785 5789 5790 5792 5793 5793 5792 5790 5788 5789 5788 5786 5783
5599 5607 5611 5616 5624 5631 5638 5648 5654 5660 5666 5670 5675 5678 5686 5699 5704 5709 5717 5727 5733 5737 5740 5747 5756 5762 5765 5768 5771 5773 5775 5777 5778 5780 5783 5785 5785 5783 5782 5781 5781 5779 5777 5774
5600 5603 5609 5616 5621 5627 5634 5639 5647 5654 5659 5664 5667 5671 5678 5688 5692 5699 5706 5713 5719 5726 5732 5735 5742 5750 5755 5758 5761 5763 5765 5766 5768 5770 5773 5773 5773 5773 5773 5773 5771 5769 5767 5765
5599 5602 5608 5613 5619 5626 5630 5637 5643 5647 5654 5659 5662 5666 5669 5678 5684 5690 5696 5702 5709 5716 5722 5727 5732 5737 5745 5749 5752 5754 5755 5756 5758 5760 5762 5762 5762 5763 5763 5762 5761 5759 5757 5756
5597 5603 5607 5611 5616 5618 5626 5632 5637 5642 5646 5652 5657 5660 5662 5667 5676 5681 5687 5693 5699 5707 5712 5719 5724 5728 5732 5736 5739 5743 5744 5746 5747 5748 5749 5751 5752 5753 5752 5751 5751 5749 5747 5745
5596 5600 5604 5608 5613 5617 5621 5627 5631 5635 5640 5645 5649 5653 5659 5662 5667 5673 5679 5683 5688 5694 5700 5706 5713 5718 5722 5724 5726 5729 5732 5735 5736 5737 5738 5739 5740 5741 5740 5741 5740 5738 5736 5734
5594 5598 5602 5605 5610 5614 5617 5621 5624 5629 5634 5638 5642 5647 5651 5655 5659 5664 5669 5674 5680 5685 5690 5694 5700 5705 5709 5711 5714 5719 5721 5722 5725 5725 5726 5726 5727 5728 5730 5729 5727 5727 5725 5722
5590 5595 5598 5602 5606 5610 5614 5615 5619 5623 5628 5632 5636 5640 5641 5647 5651 5655 5659 5664 5669 5675 5681 5685 5690 5693 5696 5698 5701 5705 5707 5710 5712 5714 5713 5713 5714 5717 5718 5717 5716 5714 5712 5709
5588 5592 5594 5598 5601 5606 5610 5612 5614 5618 5621 5626 5630 5633 5637 5641 5643 5647 5651 5654 5660 5665 5670 5674 5678 5682 5685 5687 5691 5694 5696 5698 5699 5700 5700 5700 5702 5704 5704 5703 5702 5701 5698 5697
5585 5589 5591 5594 5597 5601 5605 5608 5611 5614 5618 5620 5624 5627 5630 5634 5637 5638 5641 5645 5650 5654 5659 5663 5667 5671 5674 5676 5678 5681 5683 5686 5687 5688 5688 5688 5690 5690 5690 5690 5690 5688 5687 5685
5583 5586 5589 5591 5593 5597 5599 5603 5607 5610 5613 5615 5617 5620 5623 5627 5629 5630 5633 5635 5639 5644 5648 5651 5655 5659 5663 5665 5666 5669 5671 5673 5675 5677 5677 5678 5679 5679 5679 5678 5677 5676 5675 5673
5581 5583 5587 5589 5591 5593 5594 5597 5601 5603 5606 5608 5610 5613 5616 5619 5621 5624 5626 5628 5631 5633 5636 5640 5643 5646 5649 5651 5654 5657 5659 5661 5664 5665 5666 5666 5666 5666 5665 5665 5665 5664 5662 5661
5578 5580 5583 5585 5587 5588 5590 5592 5595 5599 5602 5600 5603 5606 5609 5612 5614 5617 5619 5621 5623 5625 5627 5630 5632 5635 5637 5639 5643 5645 5647 5649 5651 5651 5653 5653 5654 5653 5654 5654 5653 5652 5651 5650
5573 5576 5579 5581 5584 5587 5587 5590 5593 5594 5593 5595 5597 5598 5600 5603 5606 5608 5610 5612 5615 5617 5618 5619 5621 5623 5625 5628 5629 5632 5634 5634 5637 5639 5640 5641 5642 5641 5641 5641 5641 5640 5639 5637
5571 5572 5575 5578 5579 5581 5582 5584 5586 5589 5590 5591 5592 5593 5593 5594 5596 5598 5601 5603 5604 5606 5609 5610 5611 5612 5614 5616 5619 5619 5619 5620 5624 5627 5628 5629 5629 5629 5628 5628 5628 5627 5626 5626
5563 5566 5569 5571 5572 5574 5577 5578 5580 5581 5583 5584 5586 5588 5588 5589 5589 5589 5592 5593 5594 5595 5597 5598 5600 5601 5603 5605 5606 5607 5607 5608 5611 5614 5615 5616 5616 5615 5615 5615 5615 5615 5614 5614
5555 5559 5562 5565 5565 5568 5570 5570 5572 5574 5575 5576 5577 5579 5580 5581 5582 5583 5583 5583 5584 5584 5585 5587 5588 5589 5590 5592 5593 5594 5595 5596 5597 5598 5600 5602 5603 5602 5602 5602 5602 5602 5602 5602
5551 5553 5556 5556 5558 5560 5561 5561 5562 5563 5564 5565 5566 5566 5567 5568 5569 5569 5571 5572 5572 5572 5572 5573 5575 5576 5577 5579 5580 5581 5581 5582 5583 5584 5586 5587 5587 5587 5588 5589 5590 5590 5590 5590